Regional Weather Roundup
Issued by NWS

Home | Current Version | Previous Version | Graphics & Text | Print | Product List | Glossary On
Versions: 1 2 3 4 5 6 7 8 9 10 11 12 13 14 15 16 17 18 19 20 21 22 23 24 25 26 27 28 29 30 31 32 33 34 35 36 37 38 39 40 41 42 43 44 45 46 47 48 49 50
000
ASUS43 KTOP 282159
RWRKS

WEATHER ROUNDUP FOR KANSAS
NATIONAL WEATHER SERVICE GOODLAND KS
400 PM CST FRI NOV 28 2014

NOTE:  "FAIR" INDICATES FEW OR NO CLOUDS BELOW 12,000 FEET WITH NO
SIGNIFICANT WEATHER AND/OR OBSTRUCTIONS TO VISIBILITY.

KSZ001>006-013>018-027>032-041>047-282300-
NORTHWEST KANSAS

CITY           SKY/WX    TMP DP  RH WIND       PRES   REMARKS
GOODLAND       PTSUNNY   77  14   9 N8        29.78S
HAYS           SUNNY     77  27  15 SW10      29.73F
HILL CITY      MOSUNNY   79  19  10 W6        29.72F
RUSSELL        SUNNY     74  29  19 S10       29.71F
$$

KSZ061>065-074>080-084>089-282300-
SOUTHWEST KANSAS

CITY           SKY/WX    TMP DP  RH WIND       PRES   REMARKS
DODGE CITY     SUNNY     76  18  11 S12       29.78F
ELKHART          N/A     72  25  17 S6          N/A
GARDEN CITY    SUNNY     73  21  14 S6        29.78F
GREAT BEND     SUNNY     73  30  20 S16       29.74F
LIBERAL        MOSUNNY   70  25  18 SE7       29.81F
$$

KSZ066>073-081>083-090>101-282300-
SOUTHEAST KANSAS

CITY           SKY/WX    TMP DP  RH WIND       PRES   REMARKS
CHANUTE        PTCLDY    62  35  36 S20G28    29.84F
COFFEYVILLE    SUNNY     63  37  38 S16G24    29.86F
HUTCHINSON     MOSUNNY   63  34  33 S17       29.79F
MEDICINE LODGE   N/A     63  34  33 S13       29.80F
NEWTON         SUNNY     59  34  38 S16G23    29.82F
PARSONS        SUNNY     63  36  36 S13G25    29.86F
WICHITA INTL   MOSUNNY   61  35  37 S17       29.81F
WICHITA JABRA  SUNNY     60  35  39 S18G24    29.81F
WINFIELD       SUNNY     63  37  38 S17G23    29.84F
$$

KSZ007>012-019>026-033>040-048>060-102>105-282300-
NORTHEAST KANSAS

CITY           SKY/WX    TMP DP  RH WIND       PRES   REMARKS
CONCORDIA      SUNNY     63  33  32 S6        29.72R
EMPORIA        PTCLDY    62  34  35 SW15      29.81R
LAWRENCE       MOCLDY    63  34  33 S10       29.79F
MANHATTAN      CLEAR     64  33  31 S10       29.74F
OLATHE IND     MOCLDY    58  34  40 S14       29.82R
OLATHE EXE     PTCLDY    58  34  40 S12       29.81S
SALINA         SUNNY     65  34  31 S17       29.75F
TOPEKA BILLARD CLEAR     66  34  30 S12       29.78F
TOPEKA FORBES  CLEAR     65  34  31 S10       29.79S
$$


USA.gov is the U.S. government's official web portal to all federal, state and local government web resources and services.